Regional Weather Roundup
Issued by NWS

Home | Current Version | Previous Version | Text Only | Print | Product List | Glossary On
Versions: 1 2 3 4 5 6 7 8 9 10 11 12 13 14 15 16 17 18 19 20 21 22 23 24 25 26 27 28 29 30 31 32 33 34 35 36 37 38 39 40 41 42 43 44 45 46 47 48 49 50
000
ASUS44 KLIX 300912
RWRLA
LOUISIANA WEATHER ROUNDUP
NATIONAL WEATHER SERVICE NEW ORLEANS LA
400 AM CDT THU JUL 30 2015

NOTE: "FAIR" INDICATES FEW OR NO CLOUDS BELOW 12,000 FEET WITH NO
      SIGNIFICANT WEATHER AND/OR OBSTRUCTIONS TO VISIBILITY.
      SKY/WX - SKY CONDITION AND SIGNIFICANT WEATHER.
      TMP - AIR TEMPERATURE.    DP   - DEWPOINT TEMPERATURE.
      RH  - RELATIVE HUMIDITY.  PRES - PRESSURE.
      HX  - HEAT INDEX.         WCI  - WIND CHILL INDEX.

*  THESE STATIONS ARE NOT NWS OR FAA STATIONS AND ARE NOT UNDER
   NWS QUALITY CONTROL.

LAZ040-048-061>063-065-066-069-301000-
SOUTHEAST LOUISIANA

CITY           SKY/WX    TMP DP  RH WIND       PRES   REMARKS
N.O. AUDUBON     N/A     79  79 100 MISG        N/A
N.O. INTL ARPT MOCLDY    79  75  87 W6        29.99S
N.O. LAKEFRONT PTCLDY    82  75  79 NW13      29.99S
N.O. DOWNTOWN* FAIR      81  77  89 CALM      30.00S
RESERVE*         N/A     78  76  92 CALM      29.99F
SLIDELL        PTCLDY    75  75 100 CALM      29.98S FOG
BATON ROUGE    PTCLDY    78  75  90 CALM      30.00S
BOOTHVILLE     MOCLDY    81  77  88 NW3       29.98F
BELLE CHASSE   PTCLDY    77  75  93 W3        29.99S
BOGALUSA*        N/A     76  72  88 CALM      30.00S
GALLIANO*      NOT AVBL
NEW ROADS*     FAIR     N/A N/A N/A CALM      30.00S
GONZALES*      FAIR      77  77 100 CALM      29.99S
HAMMOND*       CLEAR     75  72  88 CALM      30.01S
HOUMA*         MOCLDY    77  75  92 CALM      30.00S
PORT FOURCHON* NOT AVBL

$$

LAZ041-044-053-054-301000-
SOUTHWEST LOUISIANA

CITY           SKY/WX    TMP DP  RH WIND       PRES   REMARKS
LAKE CHARLES   MOCLDY    83  76  79 W5        29.99S
LAFAYETTE      CLOUDY    81  74  79 CALM      29.99F
PATTERSON      MOCLDY    79  75  89 CALM      30.01F
SALT POINT       N/A     79  77  94 CALM      29.98F
NEW IBERIA     CLOUDY    79  76  90 CALM      30.00S
CHENAULT AIRPK MOCLDY    83  75  75 CALM      30.00R

$$

LAZ027-028-301000-
CENTRAL LOUISIANA

CITY           SKY/WX    TMP DP  RH WIND       PRES   REMARKS
FORT POLK      PTCLDY    78  74  88 E5        29.99F
ALEXANDRIA INT   N/A    N/A N/A N/A MISG      29.99S
ALEXANDRIA     PTCLDY    77  73  87 CALM      30.00F

$$

LAZ001-002-301000-
NORTHWEST LOUISIANA

CITY           SKY/WX    TMP DP  RH WIND       PRES   REMARKS
SHREVEPORT     CLEAR     82  73  74 CALM      30.01S
BARKSDALE AFB  PTCLDY    82  76  82 N3        30.01S
DTN SHREVEPORT CLEAR     83  73  72 CALM      30.01S

$$

LAZ014-016-301000-
NORTHEAST LOUISIANA

CITY           SKY/WX    TMP DP  RH WIND       PRES   REMARKS
MONROE         CLEAR     80  77  90 CALM      30.00F
TALLULAH       CLEAR     76  74  93 CALM      30.01S

$$



USA.gov is the U.S. government's official web portal to all federal, state and local government web resources and services.